Wind_Speed
71 73 70 74 78 82 87 95 104 113 118 114 116 113 122 126 122 123 124 122 121 121 115 111 104 97 93 94 99 96 81 65 58 63 66 68 69 69 68 61 61 56 61 63
62 61 59 63 62 67 71 77 84 91 100 105 111 116 121 127 129 133 134 136 133 133 123 121 114 104 97 97 100 99 97 98 74 66 70 71 63 60 51 51 51 54 60 62
54 48 52 50 55 55 62 69 72 79 86 87 92 98 104 113 116 127 134 141 140 139 134 130 120 113 106 97 99 101 101 97 88 78 74 71 66 53 43 48 46 53 59 56
43 38 42 43 48 48 52 60 58 65 70 73 76 78 87 90 97 106 119 132 142 144 146 139 128 120 112 105 100 97 92 89 85 86 77 78 63 52 50 47 43 40 48 53
34 35 36 40 42 41 43 48 51 56 55 55 57 58 73 75 77 87 100 113 131 143 149 147 139 126 117 112 104 97 93 90 88 87 80 74 60 56 52 46 46 53 46 37
36 33 34 36 39 39 41 45 49 50 45 40 56 43 61 65 67 75 84 94 108 129 144 151 147 135 122 117 109 100 93 91 87 81 83 76 68 70 59 43 42 49 43 50
38 36 33 34 38 43 43 43 40 42 42 37 52 40 51 60 57 66 76 85 98 115 133 146 150 143 129 120 113 105 95 92 86 79 81 82 74 67 60 46 39 57 60 60
37 38 33 31 34 36 43 38 35 31 36 40 42 41 46 57 46 59 66 77 88 103 118 136 145 147 134 123 116 108 100 96 87 79 79 81 77 68 67 70 52 61 69 55
33 38 40 32 34 33 32 39 35 31 31 29 41 43 44 45 47 53 58 68 79 93 107 123 140 141 139 120 117 112 105 96 95 83 79 82 83 77 68 74 68 66 64 58
27 29 38 35 33 31 31 33 34 34 27 27 35 40 42 43 47 50 55 62 72 84 97 109 126 134 135 115 113 114 107 97 97 91 79 80 79 82 82 78 61 65 69 66
25 29 34 33 34 37 35 31 31 31 27 25 31 37 41 44 44 47 50 56 64 75 87 99 112 125 121 110 107 111 108 100 98 91 81 80 75 78 80 76 81 75 73 81
27 25 28 32 35 36 35 34 32 27 26 24 28 30 42 43 42 40 46 53 62 69 78 90 99 109 111 100 100 108 106 101 100 95 86 80 77 74 76 83 86 85 87 89
28 29 27 34 35 37 38 35 27 27 26 27 21 30 40 36 27 33 39 48 53 61 69 77 83 89 96 91 92 104 106 101 99 94 87 78 78 75 72 74 76 73 75 78
26 31 32 34 28 33 38 36 26 27 24 26 27 25 31 25 23 32 40 40 43 53 59 66 75 75 82 83 87 98 107 103 102 93 84 80 78 73 65 62 64 67 70 70
26 30 34 38 31 33 30 25 24 24 22 22 20 19 21 19 27 26 29 32 39 50 54 60 68 68 76 78 81 95 102 103 98 87 80 78 75 72 59 56 59 64 63 63
25 28 33 39 33 27 24 19 21 18 16 17 13 12 19 20 20 23 26 30 39 46 48 50 55 57 65 70 80 90 96 97 88 80 78 72 67 60 54 52 50 57 58 62
25 27 28 29 24 23 19 18 16 16 14 12 11 13 9 10 14 19 23 30 34 37 41 43 45 54 65 79 84 82 88 94 84 78 72 66 58 51 49 45 43 51 62 61
22 25 24 22 20 19 16 14 13 11 10 8 3 3 6 12 18 21 24 27 31 34 40 48 54 60 73 84 89 88 86 83 79 69 63 58 52 49 45 35 49 60 64 66
23 24 25 24 18 17 10 9 11 11 7 3 12 14 14 19 23 25 28 33 36 40 45 57 64 71 78 83 86 83 81 76 69 62 51 48 48 46 44 52 57 66 62 67
20 23 25 24 22 13 10 5 8 8 5 11 22 26 30 33 39 46 53 52 50 44 52 63 70 74 81 84 82 78 72 70 64 55 47 42 43 48 51 51 62 73 69 70
19 21 22 22 22 17 5 1 10 14 18 35 34 35 45 51 62 68 68 62 57 54 53 57 66 77 86 80 75 70 63 61 57 51 41 34 39 44 48 52 64 67 63 64
18 21 20 21 22 14 3 5 16 25 38 47 50 54 61 63 67 68 64 66 52 52 52 52 69 85 78 81 77 67 59 52 51 47 41 52 50 53 50 59 66 67 67 65
17 20 18 19 18 7 3 15 25 51 63 67 65 65 64 62 59 54 47 52 57 49 52 66 76 81 81 81 76 73 56 53 50 58 50 56 48 56 48 56 60 68 69 66
17 19 19 18 12 2 12 29 54 60 69 76 83 81 76 76 74 68 62 57 51 54 53 70 76 78 77 73 74 65 57 55 45 48 53 57 54 51 53 58 59 66 78 78
13 18 20 14 3 9 26 58 72 71 77 88 91 83 78 76 76 65 61 64 42 52 68 73 74 74 70 66 67 62 55 51 52 50 56 54 59 59 60 56 61 68 75 86
14 18 12 5 6 27 54 87 82 86 88 89 85 77 77 72 70 66 60 66 46 40 57 62 63 66 74 68 65 59 54 58 53 53 52 55 59 54 47 51 56 63 72 73
Wind_Direction
283 276 272 267 262 259 256 251 249 248 248 249 248 247 243 241 241 239 241 241 240 240 238 236 234 226 225 220 218 217 219 222 231 232 238 240 242 242 246 255 259 261 271 276
284 279 275 269 262 260 259 256 253 252 250 248 248 246 244 242 238 239 236 238 237 239 235 236 233 231 225 222 223 222 227 232 232 230 237 239 240 239 247 255 258 261 264 272
284 280 274 272 267 262 259 256 255 254 253 252 249 246 244 243 240 239 234 235 235 235 234 233 232 231 230 224 222 224 230 236 238 234 238 240 241 243 241 249 257 261 278 278
289 283 276 271 267 262 261 259 255 253 252 253 247 247 245 241 237 235 234 232 232 231 235 233 229 228 228 227 223 222 228 233 237 235 234 236 236 224 252 248 273 272 283 273
297 291 286 277 276 273 271 272 267 263 262 258 255 239 246 239 236 233 231 228 229 228 232 234 231 226 226 226 225 220 221 226 232 232 230 233 229 224 241 255 267 265 280 281
306 300 292 289 284 281 274 269 264 260 258 257 253 243 246 242 229 232 228 226 226 227 228 233 233 228 224 225 223 221 218 222 227 230 229 229 222 224 233 251 248 244 267 271
309 305 298 289 284 280 277 269 266 263 258 245 253 241 243 239 232 228 227 225 221 224 225 228 232 231 225 223 223 220 217 220 224 224 227 228 223 222 222 234 255 244 256 264
308 300 297 293 284 285 289 284 278 267 256 252 247 248 238 245 229 231 225 224 221 221 222 225 229 232 227 223 222 220 217 219 222 221 223 227 228 220 212 224 225 251 251 252
308 298 306 308 299 296 296 298 291 277 264 257 254 248 245 243 234 232 226 222 221 221 221 222 226 226 229 221 219 219 217 216 221 221 218 225 228 225 225 226 235 233 231 249
309 289 301 303 301 294 291 294 297 285 271 254 256 252 247 240 234 227 224 221 219 221 220 221 224 227 225 218 214 216 215 215 219 218 216 222 226 225 224 224 223 229 233 249
316 302 299 302 307 305 303 295 293 289 278 254 247 249 250 244 239 232 226 222 220 218 220 220 221 226 225 219 208 211 213 214 219 220 219 221 223 225 226 226 229 231 235 244
317 305 305 311 311 309 305 306 308 297 280 262 248 251 245 243 238 233 227 221 219 217 218 219 218 221 225 219 208 206 210 212 218 219 220 222 223 225 226 231 234 237 239 255
317 315 311 310 310 308 304 304 300 287 272 259 258 247 247 244 239 234 231 225 219 220 218 220 220 221 220 214 205 205 207 210 216 218 218 219 222 226 227 233 241 250 255 260
316 317 319 312 308 299 302 304 298 289 275 263 254 258 258 260 240 225 226 221 214 217 218 216 218 214 216 210 201 199 206 209 213 215 217 218 223 225 230 238 242 248 251 257
317 315 318 318 320 315 312 302 299 294 283 271 267 258 258 236 234 229 223 214 207 209 211 211 213 208 207 200 191 199 204 207 211 209 214 218 223 228 234 239 246 250 252 257
313 315 322 323 325 322 313 312 313 314 300 285 290 263 242 226 227 217 210 202 198 203 203 205 206 201 195 184 187 191 200 206 206 205 211 213 220 226 233 239 241 249 250 256
316 316 331 322 326 318 331 346 334 326 313 294 258 246 230 211 199 196 191 189 188 190 188 186 185 186 178 176 177 181 194 203 205 209 210 215 221 226 229 231 238 252 254 258
313 314 321 334 334 325 335 342 350 356 336 300 304 99 176 164 166 165 168 169 170 166 165 166 165 171 172 172 176 182 190 198 204 205 208 213 219 218 221 224 234 241 247 259
310 321 328 332 337 333 339 347 9 23 19 69 111 122 131 141 140 141 140 140 144 147 159 155 156 165 166 166 169 174 184 190 192 197 203 207 206 210 212 224 230 243 256 259
314 323 331 329 330 332 344 358 60 73 102 113 107 121 129 133 129 124 124 124 127 136 146 149 159 159 158 158 165 175 174 183 188 189 191 195 201 210 214 223 229 239 253 256
315 328 328 325 330 335 356 234 129 123 116 112 116 127 129 127 126 127 123 118 114 116 128 146 154 150 150 156 163 169 171 183 184 186 189 207 214 221 220 227 238 240 252 252
316 323 320 327 326 329 318 175 140 121 127 125 124 125 124 126 131 127 126 124 122 124 125 141 148 147 152 158 162 162 168 176 182 177 203 211 221 229 232 225 234 242 254 256
310 324 324 323 323 323 224 137 124 134 129 127 127 126 128 128 129 132 134 138 133 137 136 149 150 155 158 156 159 165 175 183 186 185 203 201 222 219 235 234 234 243 249 256
321 317 314 318 327 320 133 126 141 138 132 127 123 121 118 118 115 115 118 118 132 147 146 152 153 158 159 163 170 172 170 176 189 191 196 211 216 226 230 237 243 248 251 248
313 308 312 309 331 133 121 140 136 134 133 132 126 122 119 118 117 117 113 107 119 144 150 153 155 158 159 171 175 178 180 193 194 198 203 207 216 226 231 235 235 239 246 246
304 317 314 296 124 125 138 139 139 136 136 130 126 121 120 122 127 124 121 127 144 151 152 157 159 167 171 171 174 178 187 193 199 200 207 211 214 221 231 239 244 244 244 249
Height
10561 10550 10552 10548 10547 10547 10549 10551 10553 10555 10556 10579 10588 10606 10606 10613 10634 10646 10643 10651 10666 10676 10703 10713 10733 10754 10772 10784 10799 10810 10815 10824 10828 10832 10842 10851 10858 10865 10869 10874 10879 10885 10884 10884
10534 10526 10524 10519 10523 10521 10520 10519 10520 10523 10527 10541 10549 10559 10566 10574 10593 10601 10610 10611 10632 10637 10671 10684 10709 10732 10750 10765 10774 10792 10795 10803 10817 10820 10832 10842 10852 10858 10866 10872 10873 10872 10872 10873
10512 10512 10501 10501 10497 10502 10497 10496 10499 10497 10496 10506 10513 10520 10526 10527 10551 10557 10574 10585 10598 10615 10631 10650 10685 10708 10726 10746 10759 10774 10780 10788 10796 10810 10826 10836 10846 10858 10862 10863 10863 10864 10862 10860
10495 10493 10487 10486 10481 10485 10478 10475 10480 10474 10474 10477 10486 10490 10490 10497 10509 10520 10539 10552 10564 10586 10589 10616 10651 10680 10703 10724 10739 10759 10773 10779 10785 10804 10818 10827 10840 10851 10855 10858 10860 10855 10854 10853
10483 10476 10473 10468 10465 10467 10463 10461 10460 10456 10457 10459 10458 10467 10458 10470 10484 10492 10501 10517 10532 10556 10565 10579 10609 10652 10678 10700 10725 10745 10762 10770 10779 10794 10806 10819 10834 10845 10848 10852 10844 10842 10846 10839
10469 10465 10459 10455 10452 10451 10450 10448 10444 10442 10443 10447 10431 10451 10439 10446 10460 10467 10479 10495 10514 10530 10543 10549 10570 10617 10654 10677 10704 10729 10750 10760 10769 10783 10794 10807 10824 10834 10841 10840 10842 10845 10842 10840
10457 10453 10450 10446 10442 10437 10435 10434 10433 10432 10429 10430 10420 10433 10425 10427 10443 10447 10455 10470 10485 10496 10517 10529 10541 10574 10624 10655 10682 10711 10736 10751 10759 10770 10781 10792 10810 10822 10832 10834 10838 10841 10836 10832
10448 10440 10441 10440 10434 10429 10418 10418 10417 10420 10414 10414 10412 10414 10415 10410 10429 10429 10439 10451 10464 10473 10490 10506 10522 10539 10589 10634 10664 10690 10718 10737 10745 10757 10767 10779 10794 10807 10815 10823 10826 10826 10825 10824
10439 10426 10422 10427 10420 10418 10413 10405 10404 10404 10404 10406 10397 10397 10400 10403 10409 10415 10425 10436 10448 10455 10468 10485 10488 10518 10547 10603 10642 10672 10697 10721 10731 10742 10757 10767 10782 10796 10805 10809 10816 10818 10815 10810
10431 10427 10417 10415 10413 10410 10406 10400 10395 10390 10394 10393 10387 10385 10386 10387 10391 10399 10408 10417 10428 10438 10447 10466 10477 10489 10522 10571 10613 10648 10681 10704 10713 10727 10745 10755 10767 10782 10794 10802 10806 10801 10798 10797
10425 10419 10411 10408 10404 10396 10392 10390 10386 10381 10379 10379 10376 10373 10373 10373 10378 10385 10395 10405 10414 10421 10430 10445 10460 10474 10508 10549 10586 10628 10661 10688 10698 10717 10737 10744 10755 10769 10779 10788 10788 10785 10788 10786
10419 10415 10407 10400 10395 10390 10383 10377 10372 10371 10369 10366 10364 10364 10358 10362 10368 10377 10382 10388 10395 10403 10417 10425 10443 10461 10488 10530 10569 10608 10646 10676 10687 10705 10723 10734 10747 10757 10767 10770 10773 10779 10783 10781
10412 10407 10403 10395 10390 10381 10374 10369 10364 10361 10359 10354 10356 10352 10347 10355 10365 10369 10372 10376 10388 10397 10405 10419 10438 10455 10472 10515 10553 10595 10630 10661 10674 10691 10712 10728 10741 10749 10757 10763 10770 10771 10773 10770
10408 10400 10397 10392 10387 10378 10368 10361 10356 10352 10350 10347 10345 10352 10349 10352 10354 10356 10359 10369 10381 10387 10396 10410 10422 10445 10465 10499 10535 10579 10614 10642 10660 10681 10700 10719 10734 10744 10753 10761 10765 10764 10766 10762
10402 10396 10391 10382 10376 10367 10361 10355 10350 10346 10344 10341 10342 10343 10346 10346 10346 10351 10356 10364 10372 10376 10385 10400 10412 10431 10454 10486 10526 10563 10600 10624 10647 10679 10696 10713 10728 10739 10748 10754 10756 10753 10754 10753
10396 10392 10385 10375 10369 10363 10356 10350 10346 10343 10339 10337 10337 10337 10337 10341 10344 10349 10353 10359 10364 10369 10382 10397 10413 10434 10455 10487 10520 10554 10589 10621 10651 10674 10690 10708 10721 10734 10741 10744 10744 10742 10746 10745
10391 10386 10382 10374 10367 10361 10353 10349 10345 10341 10337 10334 10333 10333 10337 10341 10345 10348 10352 10357 10363 10373 10382 10396 10415 10435 10461 10490 10520 10555 10590 10613 10648 10667 10687 10702 10715 10724 10730 10734 10737 10737 10741 10740
10387 10382 10377 10371 10364 10358 10353 10347 10343 10339 10336 10334 10335 10337 10340 10342 10346 10350 10354 10359 10366 10378 10390 10400 10416 10440 10466 10491 10524 10555 10588 10619 10644 10666 10682 10694 10705 10714 10720 10727 10730 10731 10730 10733
10383 10377 10372 10367 10362 10357 10353 10347 10342 10338 10338 10338 10337 10340 10344 10347 10349 10355 10362 10366 10375 10384 10398 10407 10420 10445 10468 10495 10528 10560 10589 10615 10641 10662 10679 10691 10701 10707 10717 10721 10724 10724 10723 10725
10379 10374 10369 10364 10359 10356 10353 10348 10343 10340 10340 10344 10342 10344 10349 10353 10358 10366 10370 10377 10385 10396 10408 10421 10439 10460 10483 10512 10542 10573 10596 10616 10640 10661 10677 10688 10699 10706 10712 10714 10716 10716 10717 10715
10374 10371 10367 10362 10357 10356 10354 10349 10344 10341 10345 10350 10351 10357 10357 10363 10371 10376 10381 10385 10393 10409 10423 10441 10458 10480 10501 10523 10555 10585 10606 10625 10646 10661 10673 10684 10694 10702 10706 10708 10710 10710 10710 10713
10371 10367 10365 10360 10356 10355 10353 10350 10346 10348 10348 10349 10359 10369 10371 10378 10385 10389 10396 10402 10412 10424 10436 10462 10481 10497 10520 10538 10564 10591 10612 10630 10644 10657 10670 10679 10691 10694 10698 10700 10701 10705 10708 10705
10368 10365 10362 10358 10355 10354 10352 10353 10355 10354 10354 10356 10368 10378 10385 10392 10400 10409 10415 10424 10426 10447 10456 10476 10494 10515 10532 10550 10571 10590 10608 10624 10637 10651 10665 10672 10677 10682 10687 10692 10696 10699 10700 10700
10365 10362 10359 10356 10356 10354 10354 10359 10360 10361 10365 10370 10379 10386 10395 10403 10414 10422 10433 10439 10449 10459 10477 10495 10509 10529 10548 10562 10576 10591 10609 10620 10631 10643 10654 10660 10663 10672 10680 10685 10691 10692 10691 10685
10363 10359 10357 10356 10356 10356 10361 10364 10369 10373 10379 10382 10388 10398 10406 10417 10425 10435 10446 10451 10476 10487 10495 10509 10525 10540 10557 10571 10582 10598 10609 10619 10629 10637 10646 10653 10659 10667 10672 10675 10674 10673 10674 10675
10359 10357 10355 10355 10358 10361 10367 10373 10379 10380 10386 10391 10401 10411 10419 10429 10440 10450 10461 10474 10494 10504 10514 10525 10536 10549 10560 10573 10586 10599 10607 10615 10623 10630 10637 10644 10650 10658 10665 10667 10670 10671 10673 10670